| time (UTC) | temp F | wind direction | speed MPH | gust MPH | rain 1hr in | rain 24hr in | rain mn in | humidity % | barometer mb |
| 20260504222934 | 51 | 315 | 0.0 | 10.0 | 0.00 | 0.20 | 0.04 | 64 | 1014.2 |
| 20260504220943 | 51 | 297 | 3.0 | 8.0 | 0.00 | 0.20 | 0.04 | 62 | 1014.2 |
| 20260504215947 | 52 | 291 | 1.0 | 7.0 | 0.00 | 0.20 | 0.04 | 62 | 1014.2 |
| 20260504214935 | 52 | 336 | 2.0 | 8.0 | 0.00 | 0.20 | 0.04 | 61 | 1014.4 |
| 20260504213946 | 51 | 330 | 2.0 | 7.0 | 0.00 | 0.20 | 0.04 | 60 | 1014.3 |
| 20260504212945 | 51 | 26 | 0.0 | 0.0 | 0.00 | 0.20 | 0.04 | 62 | 1014.5 |
| 20260504211933 | 51 | 360 | 0.0 | 4.0 | 0.00 | 0.20 | 0.04 | 62 | 1014.4 |
| 20260504210948 | 52 | 326 | 0.0 | 6.0 | 0.00 | 0.20 | 0.04 | 64 | 1014.5 |
| 20260504204944 | 52 | 316 | 3.0 | 8.0 | 0.00 | 0.20 | 0.04 | 59 | 1014.2 |
| 20260504204012 | 52 | 350 | 0.0 | 7.0 | 0.00 | 0.20 | 0.04 | 63 | 1014.2 |
| 20260504202912 | 52 | 360 | 0.0 | 9.0 | 0.00 | 0.20 | 0.04 | 67 | 1014.2 |
| 20260504201926 | 52 | 10 | 0.0 | 0.0 | 0.00 | 0.20 | 0.04 | 64 | 1014.1 |
| 20260504200917 | 52 | 355 | 0.0 | 6.0 | 0.00 | 0.20 | 0.04 | 65 | 1014.0 |
| 20260504195922 | 52 | 351 | 0.0 | 4.0 | 0.00 | 0.20 | 0.04 | 65 | 1013.8 |
| 20260504194914 | 52 | 327 | 0.0 | 6.0 | 0.00 | 0.20 | 0.04 | 65 | 1013.7 |
| 20260504193924 | 52 | 327 | 0.0 | 9.0 | 0.00 | 0.20 | 0.04 | 64 | 1013.5 |
| 20260504192928 | 52 | 327 | 2.0 | 7.0 | 0.00 | 0.20 | 0.04 | 64 | 1013.3 |
| 20260504191917 | 52 | 317 | 0.0 | 8.0 | 0.00 | 0.20 | 0.04 | 65 | 1013.3 |
| 20260504190912 | 52 | 18 | 0.0 | 4.0 | 0.04 | 0.20 | 0.04 | 65 | 1013.3 |
| 20260504185913 | 52 | 328 | 0.0 | 6.0 | 0.04 | 0.20 | 0.04 | 65 | 1013.1 |
| 20260504185004 | 52 | 292 | 0.0 | 8.0 | 0.04 | 0.20 | 0.04 | 67 | 1013.2 |
| 20260504183929 | 52 | 293 | 0.0 | 8.0 | 0.04 | 0.20 | 0.04 | 67 | 1013.1 |
| 20260504182913 | 52 | 308 | 3.0 | 9.0 | 0.04 | 0.20 | 0.04 | 67 | 1013.1 |
| 20260504181926 | 53 | 355 | 3.0 | 13.0 | 0.04 | 0.20 | 0.04 | 67 | 1013.1 |
| 20260504180916 | 53 | 302 | 0.0 | 8.0 | 0.00 | 0.16 | 0.03 | 66 | 1013.2 |
| 20260504175920 | 54 | 296 | 1.0 | 7.0 | 0.00 | 0.16 | 0.03 | 68 | 1013.1 |
| 20260504174911 | 54 | 290 | 0.0 | 3.0 | 0.00 | 0.16 | 0.03 | 68 | 1013.1 |
| 20260504173927 | 54 | 291 | 1.0 | 8.0 | 0.00 | 0.16 | 0.03 | 68 | 1013.1 |
| 20260504172929 | 54 | 321 | 0.0 | 6.0 | 0.00 | 0.16 | 0.03 | 69 | 1013.0 |
| 20260504171959 | 54 | 319 | 3.0 | 9.0 | 0.00 | 0.16 | 0.03 | 69 | 1012.9 |
| 20260504170924 | 54 | 312 | 2.0 | 9.0 | 0.00 | 0.16 | 0.03 | 70 | 1012.9 |
| 20260504150923 | 55 | 30 | 1.0 | 5.0 | 0.00 | 0.00 | 0.00 | 67 | 1012.6 |
| 20260504140930 | 60 | 40 | 1.0 | 7.0 | 0.00 | 0.00 | 0.00 | 60 | 1012.6 |
| 20260504081931 | 54 | 48 | 0.0 | 0.0 | 0.00 | 0.08 | 0.00 | 74 | 1013.8 |
| 20260504080939 | 53 | 48 | 0.0 | 0.0 | 0.00 | 0.08 | 0.00 | 76 | 1013.7 |
| 20260504045942 | 44 | 48 | 0.0 | 0.0 | 0.00 | 0.94 | 0.00 | 86 | 1012.6 |
| 20260504044935 | 43 | 48 | 0.0 | 0.0 | 0.00 | 0.94 | 0.00 | 86 | 1012.6 |
| 20260504044025 | 44 | 48 | 0.0 | 0.0 | 0.00 | 0.94 | 0.00 | 86 | 1012.6 |
| 20260504042943 | 44 | 48 | 0.0 | 0.0 | 0.00 | 0.94 | 0.00 | 85 | 1012.6 |
| 20260504041931 | 44 | 48 | 0.0 | 0.0 | 0.00 | 0.94 | 0.00 | 85 | 1012.6 |
| 20260504040947 | 44 | 48 | 0.0 | 0.0 | 0.00 | 0.94 | 0.00 | 84 | 1012.6 |
| 20260504035951 | 45 | 48 | 0.0 | 0.0 | 0.00 | 0.94 | 0.00 | 84 | 1012.7 |
| 20260504034944 | 45 | 48 | 0.0 | 0.0 | 0.00 | 0.94 | 0.00 | 84 | 1012.8 |
| 20260504033933 | 45 | 48 | 0.0 | 0.0 | 0.00 | 0.94 | 0.00 | 83 | 1012.8 |
| 20260504032937 | 46 | 48 | 0.0 | 0.0 | 0.00 | 0.94 | 0.00 | 82 | 1012.8 |
| 20260504032026 | 46 | 48 | 0.0 | 0.0 | 0.00 | 0.94 | 0.00 | 82 | 1012.9 |
| 20260504030947 | 46 | 48 | 0.0 | 0.0 | 0.00 | 0.94 | 0.00 | 83 | 1012.8 |
| 20260504025950 | 47 | 48 | 0.0 | 0.0 | 0.00 | 0.94 | 0.00 | 82 | 1012.8 |
| 20260504024939 | 47 | 48 | 0.0 | 0.0 | 0.00 | 0.94 | 0.00 | 82 | 1012.9 |
| 20260504023932 | 47 | 48 | 0.0 | 0.0 | 0.00 | 0.94 | 0.00 | 82 | 1013.0 |
| 20260504022935 | 47 | 48 | 0.0 | 0.0 | 0.00 | 0.94 | 0.00 | 82 | 1013.0 |
| 20260504021944 | 47 | 48 | 0.0 | 0.0 | 0.00 | 0.94 | 0.00 | 82 | 1013.1 |
| 20260504020918 | 47 | 48 | 0.0 | 0.0 | 0.00 | 0.94 | 0.00 | 82 | 1013.0 |
| 20260504015921 | 47 | 48 | 0.0 | 0.0 | 0.00 | 0.94 | 0.00 | 82 | 1013.0 |
| 20260504014913 | 48 | 49 | 0.0 | 1.0 | 0.00 | 0.94 | 0.00 | 82 | 1013.1 |
| 20260504013923 | 48 | 50 | 0.0 | 0.0 | 0.00 | 0.94 | 0.00 | 81 | 1013.1 |
| 20260504012925 | 48 | 50 | 0.0 | 0.0 | 0.00 | 0.94 | 0.00 | 81 | 1013.3 |
| 20260504010916 | 49 | 51 | 0.0 | 0.0 | 0.00 | 0.94 | 0.00 | 81 | 1013.4 |
| 20260504005920 | 49 | 51 | 0.0 | 0.0 | 0.00 | 0.94 | 0.00 | 80 | 1013.4 |
| 20260504004929 | 49 | 51 | 0.0 | 0.0 | 0.00 | 0.94 | 0.00 | 80 | 1013.5 |
| 20260504003921 | 50 | 51 | 0.0 | 0.0 | 0.00 | 0.94 | 0.00 | 79 | 1013.5 |
| 20260504002925 | 50 | 51 | 0.0 | 3.0 | 0.00 | 0.94 | 0.00 | 79 | 1013.7 |
| 20260504001913 | 50 | 54 | 1.0 | 5.0 | 0.00 | 0.94 | 0.00 | 80 | 1013.7 |
| 20260504000930 | 49 | 55 | 0.0 | 0.0 | 0.00 | 0.94 | 0.00 | 81 | 1013.8 |
| 20260503235917 | 50 | 55 | 0.0 | 0.0 | 0.00 | 0.94 | 0.19 | 81 | 1013.9 |
| 20260503234926 | 50 | 55 | 0.0 | 0.0 | 0.00 | 0.94 | 0.19 | 80 | 1014.0 |
| 20260503233914 | 51 | 55 | 0.0 | 0.0 | 0.00 | 0.94 | 0.19 | 79 | 1014.1 |
| 20260503232918 | 51 | 55 | 0.0 | 0.0 | 0.00 | 0.94 | 0.19 | 79 | 1014.1 |
| 20260503231910 | 52 | 55 | 0.0 | 0.0 | 0.00 | 0.94 | 0.19 | 79 | 1014.0 |
| 20260503230919 | 52 | 55 | 0.0 | 0.0 | 0.00 | 0.94 | 0.19 | 79 | 1014.2 |
| 20260503225923 | 52 | 55 | 0.0 | 0.0 | 0.00 | 0.94 | 0.19 | 77 | 1014.1 |
| 20260503224917 | 52 | 55 | 0.0 | 0.0 | 0.00 | 0.94 | 0.19 | 77 | 1014.0 |